TimeEST,TemperatureF,Dew PointF,Humidity,Sea Level PressureIn,VisibilityMPH,Wind Direction,Wind SpeedMPH,Gust SpeedMPH,PrecipitationIn,Events,Conditions,WindDirDegrees,DateUTC
12:53 AM,30.9,24.1,76,30.16,10.0,Calm,Calm,-,N/A,,Clear,0,2012-11-06 05:53:00
1:53 AM,30.9,24.1,76,30.15,10.0,Calm,Calm,-,N/A,,Clear,0,2012-11-06 06:53:00
2:53 AM,30.0,24.1,79,30.13,10.0,Calm,Calm,-,N/A,,Clear,0,2012-11-06 07:53:00
3:53 AM,30.0,25.0,82,30.11,10.0,NE,3.5,-,N/A,,Clear,50,2012-11-06 08:53:00
4:53 AM,30.0,24.1,79,30.11,10.0,Calm,Calm,-,N/A,,Clear,0,2012-11-06 09:53:00
5:53 AM,30.0,24.1,79,30.10,10.0,Calm,Calm,-,N/A,,Clear,0,2012-11-06 10:53:00
7:53 AM,32.0,25.0,75,30.10,2.0,Calm,Calm,-,N/A,,Haze,0,2012-11-06 12:53:00
8:06 AM,32.0,26.6,80,30.07,6.0,Calm,Calm,-,N/A,,Haze,0,2012-11-06 13:06:00
8:53 AM,36.0,26.1,67,30.09,10.0,Calm,Calm,-,N/A,,Clear,0,2012-11-06 13:53:00
9:53 AM,41.0,27.0,57,30.09,10.0,Variable,3.5,-,N/A,,Clear,0,2012-11-06 14:53:00
10:53 AM,45.0,27.0,49,30.09,10.0,SSE,4.6,-,N/A,,Clear,150,2012-11-06 15:53:00
11:53 AM,48.9,28.0,44,30.06,10.0,Calm,Calm,-,N/A,,Clear,0,2012-11-06 16:53:00
12:53 PM,48.9,26.1,41,30.03,10.0,Calm,Calm,-,N/A,,Clear,0,2012-11-06 17:53:00
1:53 PM,51.1,27.0,39,30.01,10.0,SSE,4.6,-,N/A,,Clear,160,2012-11-06 18:53:00
2:53 PM,52.0,27.0,38,29.99,10.0,ENE,3.5,-,N/A,,Clear,60,2012-11-06 19:53:00
3:53 PM,52.0,26.1,37,29.98,10.0,Calm,Calm,-,N/A,,Clear,0,2012-11-06 20:53:00
4:53 PM,46.9,27.0,46,29.98,10.0,ENE,5.8,-,N/A,,Clear,70,2012-11-06 21:53:00
5:53 PM,45.0,27.0,49,29.99,10.0,East,5.8,-,N/A,,Clear,90,2012-11-06 22:53:00
6:53 PM,43.0,27.0,53,29.99,10.0,East,4.6,-,N/A,,Clear,100,2012-11-06 23:53:00
7:53 PM,41.0,26.1,55,29.98,10.0,East,4.6,-,N/A,,Clear,100,2012-11-07 00:53:00
8:53 PM,39.0,25.0,57,29.98,10.0,ESE,6.9,-,N/A,,Clear,120,2012-11-07 01:53:00
9:53 PM,37.9,25.0,60,29.97,10.0,East,4.6,-,N/A,,Clear,100,2012-11-07 02:53:00
10:53 PM,37.0,25.0,62,29.96,10.0,ESE,5.8,-,N/A,,Clear,120,2012-11-07 03:53:00
11:53 PM,37.0,25.0,62,29.96,10.0,East,6.9,-,N/A,,Clear,100,2012-11-07 04:53:00